Bishopton, United Kingdom

7:15 PM GMT on February 22, 2017 (GMT +0000)
Glasgow

Weather History for EGPF - November, 2011

Change the Weather History Date:

Friday, November 18, 2011

  Actual Average Record
Temperature  
Mean Temperature 55 °F -  
Max Temperature 57 °F 45 °F 59 °F (1997)
Min Temperature 53 °F 35 °F 19 °F (2005)
Degree Days  
Heating Degree Days 10    
Growing Degree Days 5 (Base 50)    
Moisture  
Dew Point 52 °F    
Average Humidity 87    
Maximum Humidity 94    
Minimum Humidity 82    
Precipitation  
Precipitation 0.00 in - - ()
Sea Level Pressure  
Sea Level Pressure 29.74 in    
Wind  
Wind Speed 14 mph ()    
Max Wind Speed 20 mph    
Max Gust Speed -    
Visibility 6.0 miles    
Events Rain    
Averages and records for this station are not official NWS values.
T = Trace of Precipitation, MM = Missing Value Source: Averaged Metar Reports

Daily Weather History Graph

Daily Weather History Graph

Search for Another Location

Airport or City:

Trip Planner

Search our weather history database for the weather conditions in past years. The results will help you decide how hot, cold, wet, or windy it might be!

Date:

Astronomy

Nov. 18, 2011 Rise Set
Actual Time 7:58 AM GMT 4:06 PM GMT
Civil Twilight 7:16 AM GMT 4:48 PM GMT
Nautical Twilight 6:30 AM GMT 5:34 PM GMT
Astronomical Twilight 5:46 AM GMT 6:18 PM GMT
Moon 11:54 PM GMT (11/18) 1:00 PM GMT (11/18)
Length of Visible Light 9h 32m
Length of Day
8h 07m
Waning Gibbous, 51% of the Moon is Illuminated
Nov 18
Waning Gibbous
Nov 18
Last Quarter
Nov 25
New
Dec 2
First Quarter
Dec 10
Full

Hourly Weather History & Observations

Time (GMT) Temp. Dew Point Humidity Pressure Visibility Wind Dir Wind Speed Gust Speed Precip Events Conditions
12:20 AM 55.4 °F 51.8 °F 88% 29.65 in 5.0 mi South 19.6 mph - N/A Rain Light Rain
12:50 AM 55.4 °F 51.8 °F 88% 29.65 in - South 19.6 mph - N/A Rain Rain
1:20 AM 55.4 °F 53.6 °F 94% 29.65 in - South 17.3 mph - N/A Rain Rain
1:50 AM 55.4 °F 53.6 °F 94% 29.65 in - South 18.4 mph - N/A Rain Rain
2:20 AM 55.4 °F 53.6 °F 94% 29.65 in - SSW 18.4 mph - N/A Rain Rain
2:50 AM 55.4 °F 53.6 °F 94% 29.65 in 2.8 mi SSW 16.1 mph - N/A Rain Light Rain
3:20 AM 55.4 °F 53.6 °F 94% 29.68 in 6.2 mi SSW 17.3 mph - N/A Rain Rain
3:50 AM 55.4 °F 53.6 °F 94% 29.68 in 6.2 mi SSW 18.4 mph - N/A Rain Light Rain
4:20 AM 55.4 °F 53.6 °F 94% 29.68 in 6.2 mi SSW 19.6 mph - N/A Rain Light Rain
4:50 AM 55.4 °F 53.6 °F 94% 29.68 in 5.0 mi SSW 17.3 mph - N/A Rain Heavy Rain
5:20 AM 55.4 °F 53.6 °F 94% 29.68 in 6.2 mi SSW 17.3 mph - N/A Rain Light Rain
5:50 AM 55.4 °F 53.6 °F 94% 29.68 in 6.2 mi SSW 18.4 mph - N/A Rain Light Rain
6:20 AM 55.4 °F 53.6 °F 94% 29.68 in 6.2 mi SSW 19.6 mph - N/A Rain Light Rain
6:50 AM 55.4 °F 53.6 °F 94% 29.71 in 6.2 mi SSW 16.1 mph - N/A Rain Light Rain
7:20 AM 55.4 °F 53.6 °F 94% 29.71 in 6.2 mi South 15.0 mph - N/A Rain Light Rain
7:50 AM 55.4 °F 51.8 °F 88% 29.71 in 6.2 mi SSW 15.0 mph - N/A Rain Light Rain
8:20 AM 55.4 °F 51.8 °F 88% 29.71 in 6.2 mi SSW 13.8 mph - N/A Rain Light Rain
8:50 AM 57.2 °F 51.8 °F 82% 29.74 in 6.2 mi SSW 13.8 mph - N/A   Scattered Clouds
9:20 AM 57.2 °F 51.8 °F 82% 29.74 in 6.2 mi SSW 13.8 mph - N/A Rain Light Rain
9:50 AM 57.2 °F 51.8 °F 82% 29.74 in 6.2 mi South 12.7 mph - N/A Rain Light Rain
10:20 AM 57.2 °F 51.8 °F 82% 29.74 in 6.2 mi South 13.8 mph - N/A Rain Light Rain
10:50 AM 57.2 °F 51.8 °F 82% 29.77 in 5.6 mi South 11.5 mph - N/A Rain Light Rain
11:20 AM 57.2 °F 51.8 °F 82% 29.77 in 6.2 mi South 12.7 mph - N/A   Mostly Cloudy
11:50 AM 57.2 °F 51.8 °F 82% 29.77 in 6.2 mi South 12.7 mph - N/A   Mostly Cloudy
12:20 PM 57.2 °F 51.8 °F 82% 29.77 in 6.2 mi South 12.7 mph - N/A   Mostly Cloudy
12:50 PM 57.2 °F 51.8 °F 82% 29.77 in 6.2 mi SSW 15.0 mph - N/A   Mostly Cloudy
1:20 PM 57.2 °F 51.8 °F 82% 29.77 in 6.2 mi SSW 16.1 mph - N/A   Mostly Cloudy
1:50 PM 57.2 °F 51.8 °F 82% 29.74 in 6.2 mi SSW 17.3 mph - N/A   Scattered Clouds
2:20 PM 57.2 °F 51.8 °F 82% 29.74 in 6.2 mi SSW 16.1 mph - N/A   Mostly Cloudy
2:50 PM 57.2 °F 51.8 °F 82% 29.74 in 6.2 mi SSW 17.3 mph - N/A   Mostly Cloudy
3:20 PM 57.2 °F 51.8 °F 82% 29.74 in 6.2 mi SSW 16.1 mph - N/A Rain Light Rain
3:50 PM 57.2 °F 51.8 °F 82% 29.77 in 3.7 mi SSW 16.1 mph - N/A Rain Light Rain
4:20 PM 57.2 °F 51.8 °F 82% 29.77 in 5.6 mi SSW 16.1 mph - N/A Rain Light Rain
4:50 PM 55.4 °F 51.8 °F 88% 29.77 in 6.2 mi South 12.7 mph - N/A Rain Light Rain
5:20 PM 55.4 °F 51.8 °F 88% 29.77 in 6.2 mi South 11.5 mph - N/A Rain Light Rain
5:50 PM 57.2 °F 51.8 °F 82% 29.80 in 6.2 mi South 9.2 mph - N/A Rain Light Rain
6:20 PM 55.4 °F 51.8 °F 88% 29.80 in 6.2 mi South 12.7 mph - N/A Rain Light Rain
6:50 PM 55.4 °F 51.8 °F 88% 29.80 in 6.2 mi South 10.4 mph - N/A Rain Light Rain
7:20 PM 55.4 °F 51.8 °F 88% 29.80 in 6.2 mi South 6.9 mph - N/A   Mostly Cloudy
7:50 PM 55.4 °F 51.8 °F 88% 29.80 in 6.2 mi South 5.8 mph - N/A   Scattered Clouds
8:20 PM 55.4 °F 51.8 °F 88% 29.83 in 6.2 mi East 4.6 mph - N/A   Mostly Cloudy
8:50 PM 55.4 °F 51.8 °F 88% 29.83 in 6.2 mi ESE 4.6 mph - N/A   Mostly Cloudy
9:20 PM 55.4 °F 51.8 °F 88% 29.83 in 6.2 mi Variable 2.3 mph - N/A   Mostly Cloudy
9:50 PM 55.4 °F 50.0 °F 82% 29.83 in 6.2 mi SSE 6.9 mph - N/A   Mostly Cloudy
10:20 PM 55.4 °F 50.0 °F 82% 29.83 in 6.2 mi SE 5.8 mph - N/A   Mostly Cloudy
10:50 PM 53.6 °F 50.0 °F 88% 29.83 in 6.2 mi ESE 6.9 mph - N/A   Mostly Cloudy
11:20 PM 55.4 °F 50.0 °F 82% 29.83 in 6.2 mi ESE 6.9 mph - N/A   Mostly Cloudy
11:50 PM 53.6 °F 50.0 °F 88% 29.83 in 6.2 mi ESE 5.8 mph - N/A   Mostly Cloudy